Location: ??
(35.1714°N, 128.2806°E)
Time: 19:25:38
(UTC+00:00)

Tiangong - Pass Details

Date: 22 June 2021
Orbit: 373 x 385 km, 41.5° (Epoch: 04 August)

Event Time Altitude Azimuth Distance (km) Brightness Sun altitude
Exits shadow 17:43:29 34° 54° (NE) 647 2.7 -23.3°
Drops below altitude 10° 17:45:25 10° 62° (ENE) 1,393 4.7 -23.1°
Sets 17:47:31 0° 65° (ENE) 2,250 5.9 -22.8°
